PADK

Adak Airport

Airport
ICAO code
PADK
IATA Code
ADK
Summary
ICAO Region
NAM
ICAO Territory
Location

Adak Island, Alaska

Serving
Adak Island
Elevation
18 ft
Coordinates
51° 52' 41" N , 176° 38' 46" W
KCC
Airport BS
Bird Strike
Non Avian Wildlife Hazards to Aircraft
Airport WX
Fog
Metar
PADK 181356Z AUTO 32005KT 10SM BKN035 OVC085 00/M05 A3040 RMK AO2 SLP294 T00001050 FZRANO $

Description

Regional airport serving Adak, Alaska which is located on Adak Island in the Aleutian Island chain.

Climatology

Subpolar oceanic climate (Köppen climate classification Cfc) - moderate and fairly uniform temperatures and heavy rainfall. Fog is often present even when it is not raining. Summer weather is around 5 °F (2.8 °C) cooler than Southeast Alaska (Sitka), but the winter temperatures are nearly the same.

Runways

Designator Length Width Surface Rops
18/36 2318 61 ASPH-G Yes/Yes
5/23 2374 61 ASPH-G Yes/Yes

Airport map

Aerial View

SKYbrary Partners:

Safety knowledge contributed by: